OBJECT BE, 61787

Orbit data source: Space-Track

You're viewing an Uncataloged Satellite

Recently launched and/or uncataloged satellites may have evolving metadata. Metadata may include but not limited to: Owner, Maufacturer, Bus, Motor, and Mission.

OBJECT BE, 61787 is a satellite in SSO that was launched on Mon, 04 Nov 2024 UTC via a SOYUZ-2-1B launch vehicle from the Vostochny Cosmodrome (VOSTO). Unknown objects in Earth's orbit typically refer to objects detected orbiting the Earth but have not yet been identified or cataloged. These objects could be anything from previously untracked satellites, spent rocket stages, debris from satellite collisions, or even natural meteoroids temporarily captured by Earth's gravity.

Loading next visibility...
Identifier
61787, 2024-199BE
Orbit
SSO
Country
Flag of TBDTBD
Related business
None
Manufacturer
Unknown
Mission
Operational Amateur Technology
Bus & Motor
Unknown
Mass
Unknown
Launch date (UTC)
2024-11-04 (1 year ago)
Launch vehicle
SOYUZ-2-1B
Launch site
Vostochny Cosmodrome (VOSTO)
Object type
Unknown
Shape & HBR
Box, 0.1 m
Radar Cross Section
0.035 m², Medium (>0.1 m² and < 1m²)

Expand to show TLE details & history
Last TLE update: 14 hours ago

TLE from 14 hours ago
0 OBJECT BE
1 61787U 24199BE  25301.68981292  .00012567  00000-0  41818-3 0  9996
2 61787  97.3308 167.7421 0016785  59.4814 300.8082 15.31149809101607
Epoch: 2025-10-28T16:33Z
TLE epoch observation values (Epoch: 2025-10-28T16:33:19.836Z)
Latitude
0.00001°
Longitude
-117.86424°
Altitude
469.612 km
Speed
7.635 km/s
True Right ascension
11h 10m 58s
True Declination
0° 00' 00"
Sunlit
Object was in daylight at epoch
Visualization orbit readout
Latitude
Unknown
Longitude
Unknown
Altitude
Unknown
Speed
Unknown
Apparent Right ascension
Unknown
Apparent Declination
Unknown
Sunlit
N/A
Visualization observer readout
Local Sidereal Time
01:50:19
Azimuth
Unknown
Elevation
Unknown
Doppler factor
Unknown
Orbital elements
Apogee altitude
480.822 km
Perigee altitude
457.835 km
Semi-major axis
6,847.465 km
Eccentricity
0.00168
Inclination
97.3308°
RAAN
167.7421°
Arg. of periapsis
59.4814°
True anomaly
300.64282°
Mean anomaly
300.8082°
Eccentric anomaly
300.72553°
Mean motion
3.83044 °/min
Orbital period
93.98 mins
BSTAR
0.00041818
Loading maneuver chart data...
Computing Atmospheric mass density...
Loading historical data...
Loading historical data...
Loading historical data...
Loading historical data...
Loading historical data...
Loading historical data...
Loading historical data...

Documentation

Showing up to 5 results
|